Terug naar catalogus

STARLINK-31329

ActiefCommunicatieVLEO
NORAD 59169·PAYLOAD·🇺🇸 United States

Gelanceerd Mar 4, 2024 vanaf Cape Canaveral Space Force Station

Loading…

Volgende Passages (komende 24 uur)

TLE

VersSource: CelesTrak SupGP

Epoch: Sep 14, 2026, 22:34 UTC

1 59169C 24044T   26257.94076389 -.00092981  00000+0 -33677-2 0  2577
2 59169  43.0004 118.4594 0001386 273.5670 189.4311 15.27624887    11

Volg STARLINK-31329 in realtime met AllMySat

Download on the App Store